sat.trackr.live / text

‹ back to catalog

STARLINK-1541

NORAD 46052 · 2020-055AB

PAYLOAD ACTIVE UNKNOWN

§ Identity

Operator
Country
US
Launch date
2020-08-07
Launch site
AFETR
Launch vehicle
Mass (kg)
RCS (m²)

Purposes: comms

External: N2YO · Heavens-Above · Gunter

§ Orbital elements

Epoch: 2026-05-25T04:02:35.261088Z

Period
91.19 min
Inclination
53.1585°
Eccentricity
0.0001937
Mean motion
15.79105757 rev/d
Perigee alt
331.7 km
Apogee alt
334.3 km
Semi-major
6,711.1 km
B*
8.1306e-4
RAAN
107.2755°
Arg perigee
120.6871°
Mean anomaly
239.4342°
Rev number
32,091

§ Raw data

STARLINK-15411 46052U 20055AB  26145.16846367  .00149956  00000+0  81306-3 0  99922 46052  53.1585 107.2755 0001937 120.6871 239.4342 15.79105757320917

JSON: /api/v1/satellites/46052 · /tle

For live sub-satellite position, see the globe view (requires WebGL).

§ Visibility from observer

Set your observer location to see the next 7 days of passes ≥ 10°. The values pass through the URL so the page stays shareable.

No JS? Fill the form by hand. The geolocation button needs JavaScript.